When you browse on this site, cookies collect data to enhance your experience and personalize the content and advertising you see.
Visit our Privacy Policy to learn more. By continuing to use the site, you agree to this use of cookies and data.
  • en Suisse
  • Liste des pays
  • À 7 jours
  • Température de l'eau
  • Carte météo
  • Widgets météo
  • user-avatar
    Se connecter

    Météo par heure à Chernomorets

    Ce jour, 16 Octobre, Mercredi

    Heure Température Précipitation Vent Pression Humidité
    00:00 +14°C° 0 mm 1 m/s 763 mmHg 94%
    01:00 +14°C° 0 mm 1 m/s 763 mmHg 94%
    02:00 +13°C° 0 mm 0 m/s 763 mmHg 93%
    03:00 +13°C° 0 mm 0 m/s 763 mmHg 93%
    04:00 +13°C° 0 mm 0 m/s 762 mmHg 93%
    05:00 +14°C° 0 mm 1 m/s 762 mmHg 93%
    06:00 +14°C° 0 mm 1 m/s 763 mmHg 91%
    07:00 +15°C° 0 mm 1 m/s 763 mmHg 89%
    08:00 +16°C° 0 mm 1 m/s 763 mmHg 87%
    09:00 +19°C° 0 mm 1 m/s 763 mmHg 80%
    10:00 +19°C° 0 mm 2 m/s 763 mmHg 73%
    11:00 +21°C° 0 mm 2 m/s 763 mmHg 66%
    12:00 +21°C° 0 mm 2 m/s 763 mmHg 64%
    13:00 +23°C° 0 mm 2 m/s 762 mmHg 63%
    14:00 +23°C° 0 mm 2 m/s 762 mmHg 61%
    15:00 +21°C° 0 mm 2 m/s 762 mmHg 68%
    16:00 +19°C° 0 mm 2 m/s 762 mmHg 75%
    17:00 +18°C° 0 mm 2 m/s 761 mmHg 82%
    18:00 +17°C° 0 mm 2 m/s 762 mmHg 86%
    19:00 +16°C° 0 mm 2 m/s 762 mmHg 89%
    20:00 +15°C° 0 mm 1 m/s 762 mmHg 92%
    21:00 +15°C° 0 mm 1 m/s 762 mmHg 92%
    22:00 +15°C° 0 mm 1 m/s 762 mmHg 92%
    23:00 +15°C° 0 mm 1 m/s 762 mmHg 92%

    Demain, 17 Octobre, Jeudi

    Heure Température Précipitation Vent Pression Humidité
    00:00 +15°C° 0 mm 1 m/s 762 mmHg 92%
    01:00 +15°C° 0 mm 1 m/s 762 mmHg 92%
    02:00 +15°C° 0 mm 1 m/s 762 mmHg 92%
    03:00 +14°C° 0 mm 1 m/s 762 mmHg 92%
    04:00 +14°C° 0 mm 1 m/s 762 mmHg 92%
    05:00 +14°C° 0 mm 1 m/s 762 mmHg 92%
    06:00 +15°C° 0 mm 1 m/s 762 mmHg 89%
    07:00 +16°C° 0 mm 1 m/s 762 mmHg 86%
    08:00 +18°C° 0 mm 1 m/s 762 mmHg 83%
    09:00 +19°C° 0 mm 1 m/s 763 mmHg 75%
    10:00 +21°C° 0 mm 1 m/s 763 mmHg 66%
    11:00 +23°C° 0 mm 1 m/s 763 mmHg 57%
    12:00 +24°C° 0 mm 2 m/s 763 mmHg 55%
    13:00 +24°C° 0 mm 2 m/s 763 mmHg 52%
    14:00 +25°C° 0 mm 2 m/s 762 mmHg 50%
    15:00 +23°C° 0 mm 2 m/s 762 mmHg 57%
    16:00 +21°C° 0 mm 2 m/s 762 mmHg 64%
    17:00 +19°C° 0 mm 2 m/s 762 mmHg 71%
    18:00 +20°C° 0 mm 1 m/s 762 mmHg 74%
    19:00 +19°C° 0 mm 1 m/s 763 mmHg 77%
    20:00 +18°C° 0 mm 1 m/s 763 mmHg 81%
    21:00 +16°C° 0 mm 1 m/s 763 mmHg 80%
    22:00 +15°C° 0 mm 0 m/s 763 mmHg 80%
    23:00 +15°C° 0 mm 0 m/s 763 mmHg 80%

    Après-demain, 18 Octobre, Vendredi

    Heure Température Précipitation Vent Pression Humidité
    00:00 +14°C° 0 mm 0 m/s 763 mmHg 80%
    01:00 +15°C° 0 mm 1 m/s 763 mmHg 80%
    02:00 +15°C° 0 mm 1 m/s 763 mmHg 80%
    03:00 +15°C° 0 mm 1 m/s 763 mmHg 79%
    04:00 +15°C° 0 mm 1 m/s 763 mmHg 79%
    05:00 +15°C° 0 mm 1 m/s 763 mmHg 78%
    06:00 +16°C° 0 mm 1 m/s 763 mmHg 75%
    07:00 +16°C° 0 mm 1 m/s 763 mmHg 71%
    08:00 +18°C° 0 mm 1 m/s 763 mmHg 68%
    09:00 +20°C° 0 mm 1 m/s 763 mmHg 62%
    10:00 +22°C° 0 mm 1 m/s 763 mmHg 56%
    11:00 +23°C° 0 mm 1 m/s 763 mmHg 50%
    12:00 +24°C° 0 mm 2 m/s 763 mmHg 49%
    13:00 +24°C° 0 mm 2 m/s 763 mmHg 48%
    14:00 +25°C° 0 mm 2 m/s 762 mmHg 48%
    15:00 +23°C° 0 mm 2 m/s 762 mmHg 55%
    16:00 +21°C° 0 mm 2 m/s 762 mmHg 62%
    17:00 +19°C° 0 mm 2 m/s 762 mmHg 69%
    18:00 +18°C° 0 mm 2 m/s 762 mmHg 73%
    19:00 +18°C° 0 mm 1 m/s 762 mmHg 78%
    20:00 +16°C° 0 mm 1 m/s 762 mmHg 82%
    21:00 +16°C° 0 mm 1 m/s 762 mmHg 82%
    22:00 +14°C° 0 mm 0 m/s 763 mmHg 82%
    23:00 +14°C° 0 mm 0 m/s 763 mmHg 81%

    19 Octobre, Samedi

    Heure Température Précipitation Vent Pression Humidité
    00:00 +14°C° 0 mm 0 m/s 763 mmHg 80%
    01:00 +15°C° 0 mm 1 m/s 763 mmHg 79%
    02:00 +15°C° 0 mm 1 m/s 763 mmHg 78%
    03:00 +14°C° 0 mm 1 m/s 763 mmHg 77%
    04:00 +14°C° 0 mm 1 m/s 763 mmHg 76%
    05:00 +13°C° 0 mm 0 m/s 763 mmHg 75%
    06:00 +14°C° 0 mm 0 m/s 763 mmHg 72%
    07:00 +15°C° 0 mm 0 m/s 763 mmHg 68%
    08:00 +16°C° 0 mm 0 m/s 763 mmHg 64%
    09:00 +20°C° 0 mm 1 m/s 763 mmHg 58%
    10:00 +22°C° 0 mm 1 m/s 763 mmHg 52%
    11:00 +24°C° 0 mm 1 m/s 764 mmHg 46%
    12:00 +24°C° 0 mm 1 m/s 763 mmHg 46%
    13:00 +24°C° 0 mm 2 m/s 763 mmHg 45%
    14:00 +25°C° 0 mm 2 m/s 763 mmHg 44%
    15:00 +23°C° 0 mm 2 m/s 763 mmHg 52%
    16:00 +21°C° 0 mm 2 m/s 763 mmHg 60%
    17:00 +19°C° 0 mm 2 m/s 763 mmHg 68%
    18:00 +18°C° 0 mm 2 m/s 763 mmHg 71%
    19:00 +18°C° 0 mm 1 m/s 763 mmHg 75%
    20:00 +16°C° 0 mm 1 m/s 763 mmHg 79%
    21:00 +16°C° 0 mm 1 m/s 763 mmHg 78%
    22:00 +15°C° 0 mm 1 m/s 764 mmHg 78%
    23:00 +14°C° 0 mm 0 m/s 764 mmHg 78%

    20 Octobre, Dimanche

    Heure Température Précipitation Vent Pression Humidité
    00:00 +14°C° 0 mm 0 m/s 764 mmHg 77%
    01:00 +15°C° 0 mm 1 m/s 764 mmHg 76%
    02:00 +15°C° 0 mm 1 m/s 763 mmHg 75%
    03:00 +15°C° 0 mm 1 m/s 764 mmHg 75%
    04:00 +14°C° 0 mm 1 m/s 764 mmHg 74%
    05:00 +14°C° 0 mm 1 m/s 764 mmHg 74%
    06:00 +15°C° 0 mm 1 m/s 764 mmHg 71%
    07:00 +16°C° 0 mm 1 m/s 764 mmHg 68%
    08:00 +18°C° 0 mm 1 m/s 764 mmHg 65%
    09:00 +20°C° 0 mm 1 m/s 764 mmHg 60%
    10:00 +21°C° 0 mm 1 m/s 765 mmHg 56%
    11:00 +23°C° 0 mm 2 m/s 765 mmHg 52%
    12:00 +24°C° 0 mm 2 m/s 764 mmHg 51%
    13:00 +24°C° 0 mm 2 m/s 764 mmHg 50%
    14:00 +24°C° 0 mm 2 m/s 764 mmHg 49%
    15:00 +23°C° 0 mm 2 m/s 764 mmHg 58%
    16:00 +20°C° 0 mm 2 m/s 764 mmHg 66%
    17:00 +19°C° 0 mm 2 m/s 764 mmHg 75%
    18:00 +18°C° 0 mm 2 m/s 764 mmHg 79%
    19:00 +16°C° 0 mm 2 m/s 764 mmHg 83%
    20:00 +15°C° 0 mm 2 m/s 765 mmHg 88%
    21:00 +15°C° 0 mm 1 m/s 765 mmHg 88%
    22:00 +15°C° 0 mm 1 m/s 765 mmHg 89%
    23:00 +15°C° 0 mm 1 m/s 765 mmHg 90%

    21 Octobre, Lundi

    Heure Température Précipitation Vent Pression Humidité
    00:00 +14°C° 0 mm 1 m/s 765 mmHg 90%
    01:00 +14°C° 0 mm 1 m/s 765 mmHg 91%
    02:00 +14°C° 0 mm 1 m/s 765 mmHg 91%
    03:00 +14°C° 0 mm 1 m/s 765 mmHg 91%
    04:00 +14°C° 0 mm 1 m/s 765 mmHg 91%
    05:00 +14°C° 0 mm 1 m/s 765 mmHg 91%
    06:00 +15°C° 0 mm 2 m/s 765 mmHg 89%
    07:00 +16°C° 0 mm 2 m/s 765 mmHg 87%
    08:00 +16°C° 0 mm 2 m/s 765 mmHg 84%
    09:00 +18°C° 0 mm 2 m/s 766 mmHg 78%
    10:00 +20°C° 0 mm 3 m/s 766 mmHg 71%
    11:00 +21°C° 0 mm 3 m/s 766 mmHg 65%
    12:00 +22°C° 0 mm 3 m/s 766 mmHg 61%
    13:00 +22°C° 0 mm 4 m/s 765 mmHg 58%
    14:00 +23°C° 0 mm 4 m/s 765 mmHg 55%
    15:00 +21°C° 0 mm 4 m/s 765 mmHg 60%
    16:00 +20°C° 0 mm 4 m/s 765 mmHg 66%
    17:00 +19°C° 0 mm 3 m/s 765 mmHg 72%
    18:00 +18°C° 0 mm 3 m/s 765 mmHg 77%
    19:00 +17°C° 0 mm 3 m/s 765 mmHg 81%
    20:00 +16°C° 0 mm 3 m/s 765 mmHg 86%
    21:00 +16°C° 0 mm 3 m/s 765 mmHg 87%
    22:00 +16°C° 0 mm 2 m/s 765 mmHg 89%
    23:00 +15°C° 0 mm 2 m/s 765 mmHg 90%
    Voir plus